Lapse_Rate
5.8 6.0 5.9 5.7 5.6 5.5 5.4 5.2 4.9 4.6 4.5 4.5 4.4 4.0 3.5 3.2 3.5 5.1 4.5 3.9 5.0 4.0 3.5 5.0 6.3 6.5 6.7 6.0 6.0 6.0 6.5 6.5 6.5 6.5 6.5 6.1 6.5 5.2 4.9 6.0 6.0 5.3 5.7 6.0 6.6
5.2 5.4 5.6 5.6 5.5 5.7 5.8 5.4 5.0 5.0 5.0 4.9 4.9 5.0 4.3 2.8 4.0 4.7 5.0 5.4 4.4 4.2 4.7 5.8 5.8 6.4 6.2 5.8 6.0 6.3 6.5 6.5 6.5 6.5 6.5 6.4 5.6 5.4 5.9 6.0 6.1 5.8 6.1 6.6 6.8
5.5 5.4 5.2 5.1 5.2 5.4 5.3 5.2 5.2 5.4 5.2 5.2 5.3 5.2 4.8 4.5 5.4 6.9 5.4 7.1 6.3 5.9 5.9 6.0 7.1 7.2 6.6 6.6 6.3 6.3 6.5 6.5 6.4 6.4 6.3 6.3 5.6 5.1 5.8 6.5 5.7 5.8 6.3 6.3 6.5
6.5 6.5 6.3 6.0 5.8 5.6 5.5 5.1 5.1 5.1 5.4 5.5 5.6 5.4 5.0 5.1 6.5 7.8 5.4 6.0 5.4 6.1 5.4 6.3 7.4 6.9 6.4 6.5 6.5 6.5 6.4 6.4 6.4 6.6 6.2 6.5 5.7 5.9 5.6 5.7 5.4 4.7 5.7 6.1 6.3
6.9 6.6 6.4 6.3 6.1 5.9 5.7 5.5 5.2 5.2 5.4 5.7 6.0 6.1 5.6 6.4 6.1 4.9 4.8 5.0 5.5 6.7 6.8 6.9 7.2 6.7 6.5 6.4 6.4 6.5 6.5 6.5 6.6 6.5 5.9 6.1 6.3 6.0 5.2 5.1 6.0 6.3 6.0 6.8 6.7
7.0 6.6 6.3 6.2 6.0 5.9 5.7 5.5 5.3 5.2 5.3 5.8 6.5 6.4 7.0 6.5 6.7 5.7 4.3 3.9 4.7 6.5 6.6 6.3 7.4 7.4 6.5 6.4 6.5 6.3 6.3 6.4 6.3 6.2 6.3 6.4 6.2 5.5 4.8 5.2 5.5 6.0 4.9 6.0 6.1
7.2 6.8 6.5 6.3 6.0 5.8 5.6 5.4 5.1 5.0 5.2 5.8 6.7 7.5 7.7 6.6 5.0 5.0 5.4 5.4 3.9 5.6 7.7 7.1 7.1 7.0 6.7 6.5 6.8 6.4 6.5 6.5 6.5 6.3 6.4 5.5 6.5 6.5 4.0 5.3 5.6 5.4 4.7 4.9 6.0
6.5 6.1 6.0 5.9 5.7 5.7 5.5 5.0 4.4 4.5 5.4 6.1 7.2 7.4 7.2 6.6 6.3 5.3 5.5 4.6 5.0 5.8 7.8 8.5 7.9 7.1 7.1 6.7 6.6 6.5 6.5 6.5 6.5 6.5 6.4 5.8 6.5 6.5 4.8 4.9 4.4 4.7 4.6 4.3 4.7
6.7 6.3 6.0 5.8 5.5 5.6 5.4 4.8 3.8 4.0 5.7 6.9 6.7 6.9 7.0 8.3 6.5 6.0 6.2 5.9 6.8 4.7 8.5 9.1 8.3 7.0 6.9 6.5 6.5 6.5 6.5 6.5 6.5 6.5 6.5 6.5 6.5 6.5 5.3 6.1 5.5 4.9 3.6 3.6 3.0
6.8 6.4 6.0 5.7 5.5 5.5 5.1 4.8 4.5 4.8 6.4 7.7 7.7 6.8 6.8 6.2 7.3 6.3 5.9 6.5 7.4 7.1 7.1 7.6 6.9 6.5 6.5 6.5 6.5 6.5 6.5 6.5 6.5 6.5 6.5 6.5 6.5 6.5 5.5 5.9 6.1 5.9 5.3 2.8 2.9
7.1 6.5 6.0 5.8 5.5 5.2 5.3 4.0 7.0 6.2 7.3 7.3 7.3 7.2 6.7 7.6 7.8 6.1 5.9 6.8 7.2 7.4 6.5 6.8 6.5 6.5 6.5 6.5 6.5 6.5 6.5 6.5 6.5 6.5 6.5 6.5 6.5 6.5 6.4 6.1 6.2 4.7 5.8 5.4 2.8
7.2 7.1 6.6 5.9 5.2 5.5 5.3 6.3 8.2 7.2 6.7 8.2 8.1 7.6 7.9 8.0 7.1 7.8 6.2 6.3 6.6 6.5 6.5 6.5 6.5 6.5 6.5 6.5 6.5 6.5 6.5 6.5 6.5 6.5 6.5 6.5 6.5 6.5 6.5 6.5 6.2 6.1 5.4 6.0 4.6
7.2 7.1 6.9 5.8 5.0 5.7 5.3 7.4 9.3 7.3 6.3 7.1 7.4 7.5 7.6 7.5 6.9 6.9 6.8 6.1 6.5 6.5 6.5 6.5 6.5 6.5 6.5 6.5 6.5 6.5 6.5 6.5 6.5 6.5 6.5 6.5 6.5 6.5 6.5 6.3 6.3 6.3 6.1 4.1 6.0
7.3 7.1 6.9 6.1 5.5 5.3 4.9 8.4 8.0 7.2 6.5 6.5 6.7 7.1 7.5 6.6 6.4 7.7 7.4 6.5 6.5 6.5 6.5 6.5 6.5 6.5 6.5 6.5 6.5 6.5 6.5 6.5 6.5 6.5 6.5 6.5 6.5 6.5 6.5 6.5 6.5 6.2 6.0 5.5 2.8
7.3 7.1 7.0 6.8 5.4 6.4 7.5 8.5 7.4 5.9 6.5 6.5 6.6 7.8 7.4 6.2 6.9 6.8 7.9 6.4 6.5 6.5 6.5 6.5 6.5 6.5 6.5 6.5 6.5 6.5 6.5 6.5 6.5 6.5 6.5 6.5 6.5 6.5 6.5 6.5 6.5 6.5 5.9 2.6 1.9
7.2 6.9 7.1 5.7 5.3 5.8 7.5 7.1 5.7 6.5 6.5 6.5 6.7 6.5 6.5 6.5 6.7 6.9 6.9 7.3 7.3 6.5 6.5 6.5 6.8 6.5 6.5 6.5 6.5 6.5 6.5 6.5 6.5 6.5 6.5 6.5 6.5 6.5 6.5 6.5 6.5 6.5 5.1 4.3 3.3
7.1 6.7 6.5 7.1 4.8 7.6 7.1 5.8 6.5 6.5 6.5 6.5 6.5 6.5 6.5 6.5 6.5 6.5 6.5 6.5 6.5 6.5 6.5 6.5 6.5 6.5 6.5 6.5 6.5 6.5 6.5 6.5 6.5 6.5 6.5 6.5 6.5 6.5 6.5 6.5 6.5 6.5 5.9 4.8 4.7
7.1 6.7 5.4 6.6 6.9 7.0 6.2 6.3 6.5 6.5 6.5 6.5 6.5 6.5 6.5 6.5 6.5 6.5 6.5 6.5 6.5 6.5 6.5 6.5 6.5 6.5 6.5 6.5 6.5 6.5 6.5 6.5 6.5 6.5 6.5 6.5 6.5 6.5 6.5 6.5 6.0 6.1 6.0 5.2 5.5
7.2 5.1 4.9 5.1 8.0 5.2 5.3 6.5 6.5 6.5 6.5 6.5 6.5 6.5 6.5 6.5 6.5 6.5 6.5 6.5 6.5 6.5 6.5 6.5 6.5 6.5 6.5 6.5 6.5 6.5 6.5 6.5 6.5 6.5 6.5 6.5 6.5 6.5 6.5 6.5 6.5 6.5 6.0 3.3 2.0
5.7 5.2 4.7 7.5 8.0 5.1 6.1 6.5 6.5 6.5 6.5 6.5 6.5 6.5 6.5 6.5 6.5 6.5 6.5 6.5 6.5 6.5 6.5 6.5 6.5 6.5 6.5 6.5 6.5 6.5 6.5 6.5 6.5 6.5 6.5 6.5 6.5 6.5 6.5 6.5 6.5 6.5 6.5 5.7 5.1
5.4 5.6 6.3 8.3 5.8 5.1 6.5 6.5 6.5 7.0 6.8 6.5 6.5 6.5 6.5 6.5 6.5 6.5 6.5 6.5 6.5 6.5 6.5 6.5 6.5 6.5 6.5 6.5 6.5 6.5 6.5 6.5 6.5 6.5 6.5 6.5 6.5 6.5 6.5 6.5 6.5 6.5 6.3 6.1 5.9
6.6 6.4 6.1 6.0 4.4 5.9 6.5 6.5 6.8 6.6 6.8 6.5 6.5 6.5 6.5 6.5 6.5 6.5 6.5 6.5 6.7 6.5 6.5 6.5 6.5 6.5 6.5 6.5 6.5 6.5 6.5 6.5 6.5 6.5 6.5 6.5 6.5 6.5 6.5 6.5 6.5 6.5 6.4 6.4 5.9
4.9 5.2 5.8 6.1 6.5 6.5 6.5 6.5 6.5 6.5 6.5 6.5 6.5 6.5 6.5 6.5 6.5 6.5 6.5 6.5 6.7 6.5 6.5 6.5 6.5 6.5 6.5 6.5 6.5 6.5 6.5 6.5 6.5 6.5 6.5 6.5 6.5 6.5 6.5 6.5 6.5 6.5 5.6 5.8 5.8
5.6 6.5 3.5 4.0 5.2 6.5 6.5 6.5 6.5 6.8 6.5 6.5 6.5 6.5 6.5 6.5 6.5 6.5 6.5 6.5 6.7 6.5 6.8 6.6 6.5 6.5 6.5 6.5 6.5 6.5 6.5 6.5 6.5 6.5 6.5 6.5 6.5 6.5 6.5 6.5 6.5 6.5 6.2 5.8 4.9
5.5 5.7 6.1 6.5 5.8 6.6 6.5 6.5 6.5 6.5 6.5 6.4 6.5 6.5 6.5 6.5 6.5 6.5 6.5 6.5 6.5 6.6 6.5 6.5 6.5 6.5 6.5 6.5 6.5 6.5 6.5 6.5 6.5 6.5 6.5 6.5 6.5 6.5 6.5 6.5 6.5 6.8 6.8 6.6 6.5
6.6 4.9 4.4 5.0 6.1 6.5 6.5 6.5 6.5 6.5 6.5 6.5 6.5 6.5 6.5 6.5 6.5 6.5 6.5 6.5 6.5 6.5 6.5 6.5 6.5 6.5 6.5 6.5 6.5 6.5 6.5 6.5 6.5 6.5 6.5 6.5 6.5 6.5 6.5 6.7 6.6 6.8 6.7 6.7 6.2
6.0 6.4 6.8 6.1 6.6 6.5 6.5 6.5 6.5 6.5 6.5 6.6 6.5 6.5 6.5 6.5 6.6 6.7 6.4 6.3 6.5 6.5 6.5 6.5 6.5 6.5 6.5 6.5 6.5 6.5 6.5 6.5 6.5 6.5 6.5 6.5 6.5 6.5 6.5 6.5 6.5 6.8 6.8 6.8 6.3
Wind_Speed
17 14 14 14 16 16 17 16 14 15 16 18 19 20 22 24 24 11 14 9 9 24 18 14 14 11 14 10 9 7 9 12 21 19 22 14 19 4 7 1 2 6 9 17 16
21 19 16 15 15 14 15 16 16 16 15 16 18 20 22 24 16 16 12 20 26 25 14 12 14 11 7 9 7 13 12 23 16 21 17 19 13 8 4 2 1 7 22 23 19
20 21 21 20 18 16 16 15 15 16 16 16 16 18 22 22 7 3 19 2 15 20 21 17 15 14 16 14 18 18 22 16 20 23 21 17 11 7 10 5 5 10 23 23 21
17 16 17 17 18 17 16 16 17 18 17 17 16 15 21 5 7 3 12 22 26 24 14 20 13 14 4 13 18 19 24 21 21 22 17 16 11 8 3 5 11 8 25 25 24
16 16 17 17 17 16 17 17 18 18 17 16 14 12 7 4 10 28 36 23 16 19 11 18 19 16 18 8 17 21 23 21 21 22 17 20 19 7 8 6 7 5 16 18 18
17 18 19 19 19 19 20 20 19 19 18 15 13 8 4 13 6 16 22 21 17 13 17 13 15 20 14 14 21 13 15 20 19 21 21 21 10 4 9 7 6 5 11 17 18
18 19 20 21 20 21 22 23 23 23 20 17 12 5 12 21 17 28 21 20 19 18 17 18 15 20 12 15 20 18 18 20 22 24 20 13 15 10 9 8 7 7 8 16 18
19 21 20 21 22 23 25 25 28 29 24 18 12 6 9 9 20 10 13 21 16 17 18 20 18 20 27 14 15 19 14 18 31 23 20 11 22 11 9 8 10 10 8 10 15
20 20 21 22 23 25 28 31 36 33 21 13 5 6 11 7 4 7 3 7 17 14 13 18 18 21 21 20 14 11 21 25 27 21 17 23 22 10 13 17 13 13 10 10 10
20 22 23 23 25 27 30 36 34 26 9 7 6 4 6 7 6 4 5 5 6 12 15 16 10 12 19 16 21 21 27 23 25 19 22 20 15 19 14 16 17 17 16 10 10
20 22 24 25 28 29 23 6 6 4 5 7 9 10 18 12 9 7 4 2 4 7 16 19 8 18 30 31 31 23 24 23 23 21 20 25 20 16 18 18 18 11 18 16 12
20 22 24 27 29 31 11 4 10 4 10 16 22 27 29 22 19 26 8 2 3 14 14 14 19 19 20 24 27 30 27 28 17 21 21 17 25 17 16 23 23 23 15 21 16
19 21 23 26 32 10 8 4 12 9 5 17 19 14 16 15 27 30 12 7 7 15 17 24 12 18 23 22 25 29 31 33 27 17 24 23 23 15 16 23 23 25 20 14 22
19 20 20 26 8 8 6 13 11 4 4 8 5 4 7 10 8 6 6 10 7 10 13 10 14 23 27 25 23 27 31 29 24 18 16 25 19 19 19 22 21 22 22 17 11
18 19 19 16 5 3 10 15 10 3 4 8 5 5 17 2 3 0 2 6 17 15 8 6 9 23 28 33 26 27 17 25 22 17 21 19 9 14 25 22 29 19 20 10 9
19 20 20 8 3 11 16 10 4 1 6 7 7 14 18 10 2 2 7 2 3 10 19 20 10 3 8 20 27 22 22 20 22 22 20 23 20 21 20 29 26 14 12 12 11
19 22 17 12 4 10 12 4 4 3 9 7 23 18 22 13 7 9 6 8 5 4 8 10 22 9 4 3 17 18 10 7 12 10 16 30 21 24 24 24 13 12 20 17 15
21 24 11 11 15 10 4 4 2 7 10 17 19 21 13 10 4 7 6 5 6 10 3 5 10 21 13 9 5 19 10 7 13 15 14 17 12 29 31 9 19 23 23 13 21
23 4 4 6 10 5 3 0 6 5 11 16 22 12 15 21 5 7 6 3 1 2 3 5 6 3 17 13 14 6 8 13 15 13 6 11 10 22 19 22 22 17 18 11 8
4 4 4 6 1 4 2 5 5 9 18 18 14 8 13 19 12 13 9 2 4 5 4 1 8 13 14 11 15 12 9 11 6 7 14 10 25 21 26 30 24 20 18 20 17
2 3 3 8 4 3 3 5 7 14 15 8 12 13 17 15 15 18 7 4 4 4 5 1 3 6 11 8 11 7 6 5 1 4 7 11 18 35 7 20 19 23 29 25 22
2 3 4 4 3 2 2 3 7 17 17 13 10 9 9 17 17 16 7 4 6 3 3 2 0 5 6 9 8 3 5 5 6 5 9 2 16 13 22 5 9 22 26 28 22
2 3 5 4 1 2 5 12 12 13 11 5 10 5 16 15 10 9 14 3 6 3 5 1 1 6 7 5 9 7 2 1 3 1 8 10 18 2 12 11 14 8 12 20 22
2 2 3 3 1 5 6 7 6 10 13 16 16 15 13 11 9 8 13 6 5 5 10 1 2 5 4 7 5 3 3 2 2 2 0 16 15 10 14 15 16 19 15 12 9
2 4 4 3 4 4 7 9 14 13 13 11 10 9 15 8 5 6 8 12 5 5 3 4 4 4 4 7 8 8 8 7 3 1 3 6 13 8 9 9 14 13 17 16 15
3 1 3 4 7 8 10 5 12 15 12 9 10 13 14 12 10 9 12 4 8 3 4 3 3 4 5 11 12 8 15 13 11 9 12 12 14 7 10 9 12 14 15 15 14
3 4 2 4 3 2 5 9 12 16 10 13 13 10 7 13 17 18 14 11 14 14 13 5 2 2 3 5 5 7 15 15 8 8 11 11 9 7 11 5 4 12 10 16 11
Wind_Direction
6 359 359 358 358 357 353 350 344 339 343 344 344 343 338 332 317 311 262 238 253 282 304 296 298 280 284 230 248 243 240 242 248 250 261 277 317 186 172 157 353 177 140 136 142
10 3 356 354 352 349 347 345 341 339 335 335 336 338 335 326 306 280 241 251 256 258 275 271 282 281 264 231 232 229 237 236 250 258 271 288 309 152 130 189 342 76 116 132 140
6 3 3 357 346 340 338 334 334 333 333 329 329 332 331 320 301 290 57 316 329 299 266 253 265 272 263 251 233 240 237 242 246 254 261 282 295 276 143 172 201 148 144 146 152
2 359 357 354 354 344 333 331 329 328 325 324 322 327 324 295 256 104 24 357 351 322 244 235 238 250 261 242 236 236 244 241 249 259 274 282 283 302 224 192 192 158 165 158 160
1 357 355 351 350 344 337 331 325 316 311 310 309 322 332 277 256 296 309 325 341 338 316 221 225 231 241 243 251 238 235 243 244 252 257 266 267 238 291 242 254 89 152 159 161
357 356 354 348 345 341 334 328 320 313 301 297 304 309 267 268 278 316 326 326 320 329 316 304 231 230 268 242 246 261 252 249 252 246 245 250 250 231 269 281 303 163 162 162 166
355 352 350 348 343 337 330 323 312 303 298 290 290 278 267 252 309 299 309 304 294 285 288 289 295 260 224 255 246 256 264 269 260 246 250 242 261 229 238 268 272 257 185 172 177
351 348 346 344 340 333 326 318 307 297 293 283 278 270 258 273 273 306 296 297 285 270 268 283 290 283 241 254 252 262 269 253 250 250 246 213 243 232 229 236 248 257 237 199 186
348 344 342 339 336 330 323 315 302 286 280 266 247 207 272 260 240 239 276 270 299 290 275 278 282 257 237 228 248 242 237 237 252 235 242 228 238 218 211 228 228 233 233 226 203
345 343 340 338 333 327 323 314 294 292 262 222 213 304 252 245 232 191 189 265 312 323 302 269 226 221 212 202 216 214 226 232 238 231 233 249 235 219 211 223 228 229 229 220 206
344 343 340 336 330 325 327 325 8 1 24 279 255 233 267 242 245 214 158 11 274 247 246 263 258 220 204 205 217 222 227 230 236 230 214 236 244 219 207 216 238 224 222 225 216
342 340 338 332 325 321 317 300 349 284 294 274 254 255 250 255 268 259 142 207 257 269 224 257 256 263 236 219 221 216 226 237 242 215 235 235 235 233 220 218 223 236 225 219 213
338 338 336 332 319 328 327 340 317 354 288 281 245 245 251 219 245 260 212 159 235 261 265 234 255 285 258 233 223 227 215 230 227 223 219 240 250 233 234 232 223 224 226 210 214
334 334 337 339 347 340 290 5 1 8 309 275 237 279 227 208 273 317 191 180 219 274 240 242 233 245 266 248 227 230 222 232 232 239 225 213 239 236 236 243 232 221 220 220 200
325 327 327 330 273 260 299 328 343 49 312 274 39 339 351 308 300 88 190 137 235 232 245 209 224 216 227 243 246 243 233 236 235 236 238 243 242 232 229 233 232 235 212 203 212
318 317 319 310 303 263 285 318 19 27 252 287 43 345 330 307 265 20 22 90 247 235 257 251 292 287 222 240 237 268 280 276 236 232 242 234 231 244 232 230 228 217 216 214 222
318 312 304 288 249 283 309 360 28 184 314 301 340 354 327 360 46 2 299 309 215 210 229 260 235 234 248 299 233 246 262 231 238 220 219 225 226 237 230 236 225 214 221 211 223
317 311 272 247 252 257 6 39 101 280 307 307 338 335 321 357 345 306 292 342 71 331 291 252 244 198 196 192 238 213 225 230 215 208 212 237 226 230 233 265 222 225 245 234 228
319 285 270 249 268 153 95 203 219 300 324 334 321 321 322 323 8 307 223 184 195 43 4 332 267 239 183 186 167 188 212 240 261 283 245 208 226 276 253 252 240 232 230 234 238
320 298 268 243 51 82 142 228 269 300 301 301 309 290 324 319 340 319 344 151 170 196 238 276 290 260 176 180 193 213 165 220 197 206 220 215 217 237 221 231 242 254 256 252 256
289 307 269 91 65 79 198 232 293 289 300 318 304 301 301 304 320 309 348 72 303 217 226 209 250 313 194 192 163 175 221 191 164 213 208 220 235 226 214 236 220 233 243 255 254
246 295 262 64 32 209 219 242 290 302 290 301 302 301 302 324 305 308 302 281 220 296 259 192 249 289 289 54 33 78 207 222 228 166 211 234 253 195 264 281 245 231 229 230 234
269 263 283 126 233 267 278 298 305 310 335 308 297 301 294 316 315 328 309 211 240 50 308 40 329 324 285 119 26 62 24 326 237 242 213 196 248 44 18 34 13 321 237 233 236
319 321 311 26 287 296 309 305 297 313 314 315 309 306 309 315 306 296 331 301 209 276 281 102 249 194 225 257 277 286 338 293 316 194 109 214 225 63 26 8 4 2 23 34 32
261 252 223 284 300 268 293 291 304 308 305 318 321 331 318 314 315 346 350 333 273 260 226 175 250 214 242 203 242 275 285 286 252 272 234 358 262 149 34 356 360 350 356 10 22
244 238 315 278 281 278 287 285 287 293 313 315 312 325 335 312 295 303 313 329 293 298 240 214 273 332 284 255 221 246 251 236 249 247 266 267 284 262 96 46 352 352 352 342 7
237 265 251 261 299 299 254 270 277 291 288 290 300 310 284 281 291 311 263 264 242 262 286 214 192 338 276 27 318 263 235 221 209 207 228 265 239 354 350 341 22 325 332 330 349